This is the latest recevied weather packets stored in our database for station/object KO6LQJ. If no packets are shown the sender has not sent any weather packets the latest 10 day(s).
| Time | Temp. | Humidity | Pressure | Rain* | Wind** | Luminosity | Snow |
|---|---|---|---|---|---|---|---|
| 1777863856 | 15.56° C | 63% | 1015.6 hPa | 0 mm | - | 0 W/m² | - |
| 1777863552 | 15.56° C | 63% | 1015.7 hPa | 0 mm | - | 0 W/m² | - |
| 1777863249 | 15.56° C | 63% | 1015.7 hPa | 0 mm | - | 0 W/m² | - |
| 1777862946 | 15.56° C | 62% | 1015.8 hPa | 0 mm | - | 0 W/m² | - |
| 1777862643 | 15.56° C | 62% | 1015.7 hPa | 0 mm | - | 0 W/m² | - |
| 1777862340 | 15.56° C | 62% | 1015.7 hPa | 0 mm | - | 0 W/m² | - |
| 1777862036 | 15.56° C | 62% | 1015.7 hPa | 0 mm | - | 0 W/m² | - |
| 1777861731 | 15.56° C | 61% | 1015.6 hPa | 0 mm | - | 2 W/m² | - |
| 1777861429 | 15.56° C | 61% | 1015.8 hPa | 0 mm | - | 3 W/m² | - |
| 1777861125 | 15.56° C | 61% | 1015.4 hPa | 0 mm | - | 5 W/m² | - |
| 1777860822 | 16.11° C | 62% | 1015.3 hPa | 0 mm | - | 4 W/m² | - |
| 1777860519 | 16.11° C | 61% | 1014.9 hPa | 0 mm | - | 6 W/m² | - |
| 1777860216 | 16.11° C | 61% | 1015.4 hPa | 0 mm | - | 7 W/m² | - |
| 1777859912 | 16.67° C | 61% | 1015.3 hPa | 0 mm | - | 10 W/m² | - |
| 1777859608 | 16.67° C | 61% | 1015.3 hPa | 0 mm | - | 13 W/m² | - |
| 1777859305 | 16.67° C | 60% | 1014.6 hPa | 0 mm | - | 17 W/m² | - |
| 1777859001 | 17.22° C | 61% | 1015.1 hPa | 0 mm | - | 19 W/m² | - |
| 1777858699 | 17.22° C | 61% | 1014.8 hPa | 0 mm | - | 27 W/m² | - |
| 1777858396 | 17.22° C | 61% | 1014.9 hPa | 0 mm | - | 37 W/m² | - |
| 1777858093 | 17.22° C | 60% | 1014.8 hPa | 0 mm | - | 28 W/m² | - |
| 1777857791 | 17.22° C | 59% | 1015.2 hPa | 0 mm | - | 31 W/m² | - |
| 1777857488 | 17.22° C | 59% | 1014.7 hPa | 0 mm | - | 46 W/m² | - |
| 1777857184 | 17.78° C | 59% | 1014.7 hPa | 0 mm | - | 39 W/m² | - |
| 1777856880 | 17.78° C | 58% | 1014.8 hPa | 0 mm | - | 35 W/m² | - |
| 1777856575 | 17.78° C | 57% | 1014.7 hPa | 0 mm | - | 43 W/m² | - |
* Rain latest hour (hover to see other rain measurements)
** Current wind speed in m/s (hover to see current wind gust speed)